Content
SEND FEEDBACK

Daily
Averages
Monthly
Summary
United States of America

MANGILAO, GUAM


Home > North America > United States > Guam
Elevation: 60 feet     Latitude: 13 27N     Longitude: 144 49E

WEATHER
 
SELECT A DAY
Number of Records: 342,273;   Date Range: 1/1/95 - 8/30/14
 
SHARE

PRINT THIS DATA

[ ← Previous Day ]
WEATHER ALMANAC - SEPTEMBER 24, 2013
[ Next Day → ]
[ °C ]   °F
Weather ElementAverageHighLow
Temperature79.5 °F86 °F (2:33 pm)73.4 °F (11:58 pm)
Dewpoint76.2 °F79.2 °F (11:58 am)71.6 °F (2:48 pm)
Humidity89.8 %100 % (4:29 am)74 % (1:33 pm)
Barometer29.72 in29.80 in (8:23 pm)29.64 in (7:58 am)
Wind Speed11.6 mph17.3 mph (8:45 am)
Wind Gust27.6 mph (3:20 pm)
Weather ElementAverage
Visibility8.6 mi
Wind DirectionSSW (214.5 °)

Weather ElementTotal
Precipitation0.08 in
Cooling Degree Days14.7 (Base 65)
Growing Degree Days29.7 (Base 50)
Averaged from 88 records on September 24, 2013
WEATHER CONDITIONS BREAKOUT
WIND DIRECTION BREAKOUT
WEATHER BY HOUR - SEPTEMBER 24, 2013
[ °C ]   °F
Local TimeTemperatureDewpointHumidityBarometerVisibilityWind DirectionWind SpeedGust SpeedPrecipitationEventsConditions
12:28 AM78.8 °F77.0 °F94 %29.73 in6.0 miSW (230°)15.0 mph21.9 mphRainRain
12:33 AM78.8 °F77.0 °F94 %29.73 in2.5 miSSW (210°)12.7 mph21.9 mphRainLight Rain
12:39 AM78.8 °F77.0 °F94 %29.72 in3.0 miSSW (210°)10.4 mph21.9 mphLight Drizzle
12:41 AM78.8 °F77.0 °F94 %29.72 in5.0 miSSW (210°)10.4 mphMostly Cloudy
12:46 AM78.8 °F77.0 °F94 %29.72 in10.0 miSSW (210°)9.2 mphMostly Cloudy
12:56 AM78.8 °F77.0 °F94 %29.72 in10.0 miSSW (210°)8.1 mphPartly Cloudy
1:56 AM78.8 °F77.0 °F94 %29.71 in10.0 miSSW (210°)9.2 mphPartly Cloudy
2:56 AM78.8 °F77.0 °F94 %29.70 in10.0 miSSW (200°)8.1 mphScattered Clouds
3:12 AM78.8 °F77.0 °F94 %29.71 in10.0 miSSW (200°)8.1 mphRainLight Rain
3:17 AM78.8 °F77.0 °F94 %29.71 in10.0 miSSW (210°)10.4 mphRainLight Rain
3:18 AM78.8 °F75.2 °F89 %29.71 in10.0 miSW (220°)11.5 mphRainLight Rain
3:19 AM78.8 °F75.2 °F89 %29.71 in9.0 miSW (230°)12.7 mphRainLight Rain
3:22 AM77.0 °F75.2 °F94 %29.70 in6.0 miWSW (240°)15.0 mphRainRain
3:23 AM77.0 °F75.2 °F94 %29.70 in6.0 miWSW (240°)16.1 mphRainHeavy Rain
3:35 AM77.0 °F75.2 °F94 %29.70 in3.0 miSW (220°)16.1 mphMostly Cloudy
3:51 AM77.0 °F75.2 °F94 %29.70 in6.0 miSW (230°)13.8 mphScattered Clouds
3:56 AM77.0 °F75.2 °F94 %29.70 in10.0 miSW (220°)13.8 mphScattered Clouds
4:03 AM77.0 °F75.2 °F94 %29.70 in10.0 miSW (220°)13.8 mphRainLight Rain
4:11 AM77.0 °F75.2 °F94 %29.71 in10.0 miSW (220°)11.5 mphScattered Clouds
4:22 AM77.0 °F75.2 °F94 %29.71 in8.0 miSW (220°)10.4 mphRainLight Rain
4:29 AM77.0 °F77.0 °F100 %29.71 in3.0 miSW (230°)11.5 mphRainLight Rain
4:34 AM77.0 °F77.0 °F100 %29.71 in3.0 miSW (220°)13.8 mph23.0 mphMostly Cloudy
4:42 AM77.0 °F77.0 °F100 %29.71 in8.0 miSW (230°)9.2 mph23.0 mphRainLight Rain
4:54 AM78.8 °F77.0 °F94 %29.71 in4.0 miSW (220°)9.2 mph23.0 mphOvercast
4:56 AM78.8 °F77.0 °F94 %29.71 in6.0 miSW (220°)10.4 mph23.0 mphOvercast
5:21 AM75.2 °F75.2 °F100 %29.72 in10.0 miWSW (240°)8.1 mphRainLight Rain
5:22 AM75.2 °F75.2 °F100 %29.72 in8.0 miWSW (240°)6.9 mphRainLight Rain
5:24 AM77.0 °F75.2 °F94 %29.72 in5.0 miWSW (250°)6.9 mphRainLight Rain
5:26 AM77.0 °F77.0 °F100 %29.72 in3.0 miWest (270°)10.4 mphRainLight Rain
5:29 AM77.0 °F77.0 °F100 %29.71 in3.0 miWSW (250°)10.4 mphRainLight Rain
5:43 AM77.0 °F77.0 °F100 %29.71 in10.0 miSW (220°)12.7 mphLight Drizzle
5:44 AM77.0 °F77.0 °F100 %29.71 in9.0 miSW (220°)13.8 mphLight Drizzle
5:54 AM77.0 °F75.2 °F94 %29.72 in8.0 miSW (220°)12.7 mphOvercast
5:56 AM77.0 °F75.2 °F94 %29.72 in9.0 miSW (220°)11.5 mphMostly Cloudy
6:00 AM77.0 °F75.2 °F94 %29.72 in10.0 miSW (230°)11.5 mphMostly Cloudy
6:56 AM77.0 °F77.0 °F100 %29.74 in10.0 miSW (220°)10.4 mphClear
7:58 AM79.5 °F77.7 °F94 %29.64 in10.0 miSSW (210°)11.5 mphPartly Cloudy
8:30 AM80.6 °F78.8 °F94 %29.76 in10.0 miSSW (210°)12.7 mphRainLight Rain
8:35 AM80.6 °F78.8 °F94 %29.77 in10.0 miSSW (210°)11.5 mphRainLight Rain
8:37 AM80.6 °F78.8 °F94 %29.77 in10.0 miSSW (210°)12.7 mphMostly Cloudy
8:38 AM80.6 °F78.8 °F94 %29.77 in10.0 miSSW (210°)12.7 mphLight Drizzle
8:45 AM80.6 °F77.0 °F89 %29.77 in10.0 miSW (220°)17.3 mphMostly Cloudy
8:50 AM80.6 °F77.0 °F89 %29.77 in10.0 miSW (230°)16.1 mphScattered Clouds
8:58 AM81.5 °F76.3 °F84 %29.65 in10.0 miSW (220°)15.0 mph0.00 inPartly Cloudy
9:58 AM83.5 °F78.3 °F84 %29.65 in10.0 miSW (230°)11.5 mph19.6 mphMostly Cloudy
10:03 AM84.2 °F78.8 °F84 %29.78 in10.0 miSSW (210°)13.8 mph20.7 mphMostly Cloudy
10:13 AM84.2 °F78.8 °F84 %29.77 in10.0 miSW (220°)12.7 mph20.7 mphMostly Cloudy
10:23 AM82.4 °F75.2 °F79 %29.77 in10.0 miSSW (210°)13.8 mphScattered Clouds
10:35 AM84.2 °F78.8 °F84 %29.77 in10.0 miSSW (210°)13.8 mphRainLight Rain
10:45 AM80.6 °F77.0 °F89 %29.77 in2.0 miSW (220°)10.4 mph26.5 mphRainLight Rain
10:50 AM80.6 °F77.0 °F89 %29.77 in3.0 miSSW (210°)8.1 mphRainLight Rain
10:51 AM80.6 °F77.0 °F89 %29.77 in3.0 miSSW (210°)6.9 mphMostly Cloudy
10:58 AM78.4 °F75.4 °F90 %29.65 in10.0 miSW (230°)11.5 mph0.08 inMostly Cloudy
11:58 AM83.5 °F79.2 °F87 %29.75 in10.0 miSSW (200°)12.7 mphMostly Cloudy
12:53 PM84.2 °F77.0 °F79 %29.73 in10.0 miSSW (210°)13.8 mph20.7 mphMostly Cloudy
12:58 PM84.0 °F77.4 °F80 %29.73 in10.0 miSW (230°)15.0 mph20.7 mphMostly Cloudy
1:13 PM82.4 °F75.2 °F79 %29.73 in10.0 miSSW (210°)13.8 mphMostly Cloudy
1:18 PM84.2 °F77.0 °F79 %29.72 in10.0 miSW (220°)13.8 mphScattered Clouds
1:33 PM82.4 °F73.4 °F74 %29.72 in10.0 miSW (220°)13.8 mph24.2 mphMostly Cloudy
1:38 PM84.2 °F75.2 °F74 %29.72 in10.0 miSSW (200°)15.0 mph23.0 mphScattered Clouds
1:48 PM84.2 °F77.0 °F79 %29.71 in10.0 miSSW (200°)12.7 mphMostly Cloudy
1:58 PM82.9 °F76.1 °F80 %29.71 in10.0 miSouth (190°)15.0 mphMostly Cloudy
2:18 PM82.4 °F77.0 °F84 %29.71 in10.0 miSSW (200°)10.4 mphMostly Cloudy
2:23 PM80.6 °F75.2 °F84 %29.71 in10.0 miSSW (210°)11.5 mph18.4 mphMostly Cloudy
2:33 PM86.0 °F78.8 °F79 %29.72 in10.0 miSW (220°)17.3 mph23.0 mphMostly Cloudy
2:38 PM84.2 °F77.0 °F79 %29.71 in10.0 miSSW (200°)13.8 mph23.0 mphMostly Cloudy
2:43 PM80.6 °F75.2 °F84 %29.71 in10.0 miSSW (210°)13.8 mph23.0 mphMostly Cloudy
2:48 PM78.8 °F71.6 °F78 %29.71 in10.0 miSSW (210°)12.7 mph23.0 mphMostly Cloudy
2:58 PM84.7 °F78.6 °F82 %29.71 in10.0 miSouth (190°)12.7 mph21.9 mphOvercast
3:20 PM80.6 °F77.0 °F89 %29.71 in10.0 miSW (230°)17.3 mph27.6 mphLight Drizzle
3:25 PM78.8 °F73.4 °F83 %29.71 in10.0 miSW (220°)15.0 mphLight Drizzle
3:30 PM80.6 °F75.2 °F84 %29.71 in10.0 miSSW (210°)13.8 mphMostly Cloudy
3:58 PM81.1 °F74.7 °F81 %29.71 in10.0 miSSW (200°)12.7 mph0.00 inPartly Cloudy
4:28 PM78.8 °F71.6 °F78 %29.72 in10.0 miSouth (190°)12.7 mphMostly Cloudy
4:48 PM77.0 °F71.6 °F83 %29.72 in10.0 miSSW (200°)10.4 mphMostly Cloudy
4:58 PM79.7 °F75.6 °F87 %29.73 in10.0 miSouth (190°)10.4 mphScattered Clouds
5:58 PM77.2 °F72.9 °F86 %29.75 in10.0 miSouth (190°)11.5 mphPartly Cloudy
6:58 PM79.2 °F76.1 °F90 %29.65 in10.0 miSSW (210°)5.8 mphPartly Cloudy
7:53 PM78.8 °F77.0 °F94 %29.79 in10.0 miSSW (200°)9.2 mphMostly Cloudy
7:58 PM79.0 °F76.6 °F92 %29.67 in10.0 miSSW (200°)5.8 mphMostly Cloudy
8:08 PM78.8 °F75.2 °F89 %29.79 in10.0 miSSW (200°)8.1 mphMostly Cloudy
8:23 PM80.6 °F77.0 °F89 %29.80 in10.0 miSSW (200°)8.1 mphScattered Clouds
8:28 PM78.8 °F77.0 °F94 %29.80 in10.0 miSSW (200°)9.2 mphMostly Cloudy
8:33 PM78.8 °F77.0 °F94 %29.80 in10.0 miSouth (190°)9.2 mphScattered Clouds
8:58 PM76.5 °F73.8 °F91 %29.69 in10.0 miSouth (190°)9.2 mphScattered Clouds
9:58 PM77.9 °F75.4 °F92 %29.70 in10.0 miSSW (200°)8.1 mphClear
10:58 PM77.2 °F75.4 °F94 %29.71 in10.0 miSSW (200°)5.8 mphPartly Cloudy
11:58 PM73.4 °F72.0 °F95 %29.70 in9.0 miSSW (210°)6.9 mphPartly Cloudy
Hourly data recorded from PGUA, located miles away from Mangilao, Guam







STORIES FROM OUR PARTNERS